| time (UTC) | temp F | wind direction | speed knots | gust knots | rain 1hr in | rain 24hr in | rain mn in | humidity % | barometer mb |
| 20260906064954 | 78 | 285 | 2.6 | 7.0 | 0.00 | 0.00 | 0.00 | 56 | 1018.6 |
| 20260906064544 | 78 | 329 | 2.6 | 7.0 | 0.00 | 0.00 | 0.00 | 58 | 1018.1 |
| 20260906064451 | 78 | 316 | 4.3 | 7.0 | 0.00 | 0.00 | 0.00 | 58 | 1018.6 |
| 20260906063943 | 78 | 296 | 2.6 | 6.1 | 0.00 | 0.00 | 0.00 | 60 | 1018.5 |
| 20260906063442 | 77 | 316 | 3.5 | 6.1 | 0.00 | 0.00 | 0.00 | 62 | 1018.5 |
| 20260906063044 | 77 | 295 | 1.7 | 6.1 | 0.00 | 0.00 | 0.00 | 64 | 1018.2 |
| 20260906063003 | 77 | 281 | 2.6 | 6.1 | 0.00 | 0.00 | 0.00 | 64 | 1018.5 |
| 20260906062443 | 76 | 65 | 0.9 | 4.3 | 0.00 | 0.00 | 0.00 | 65 | 1018.4 |
| 20260906061943 | 76 | 278 | 2.6 | 4.3 | 0.00 | 0.00 | 0.00 | 66 | 1018.4 |
| 20260906061541 | 76 | 314 | 1.7 | 4.3 | 0.00 | 0.00 | 0.00 | 65 | 1018.1 |
| 20260906061451 | 76 | 323 | 1.7 | 3.5 | 0.00 | 0.00 | 0.00 | 65 | 1018.5 |
| 20260906060943 | 75 | 261 | 0.9 | 4.3 | 0.00 | 0.00 | 0.00 | 67 | 1018.5 |
| 20260906060443 | 75 | 324 | 2.6 | 4.3 | 0.00 | 0.00 | 0.00 | 68 | 1018.3 |
| 20260906060042 | 74 | 327 | 1.7 | 4.3 | 0.00 | 0.00 | 0.00 | 69 | 1017.9 |
| 20260906055951 | 74 | 319 | 1.7 | 4.3 | 0.00 | 0.00 | 0.00 | 69 | 1018.3 |
| 20260906055444 | 73 | 245 | 1.7 | 4.3 | 0.00 | 0.00 | 0.00 | 70 | 1018.3 |
| 20260906054942 | 73 | 319 | 1.7 | 4.3 | 0.00 | 0.00 | 0.00 | 70 | 1018.3 |
| 20260906054542 | 73 | 236 | 0.9 | 4.3 | 0.00 | 0.00 | 0.00 | 70 | 1017.9 |
| 20260906054503 | 73 | 302 | 1.7 | 4.3 | 0.00 | 0.00 | 0.00 | 71 | 1018.3 |
| 20260906053942 | 73 | 285 | 2.6 | 4.3 | 0.00 | 0.00 | 0.00 | 71 | 1018.4 |
| 20260906053442 | 73 | 324 | 2.6 | 4.3 | 0.00 | 0.00 | 0.00 | 71 | 1018.3 |
| 20260906053042 | 73 | 229 | 0.0 | 4.3 | 0.00 | 0.00 | 0.00 | 72 | 1017.9 |
| 20260906053004 | 73 | 221 | 0.9 | 4.3 | 0.00 | 0.00 | 0.00 | 72 | 1018.3 |
| 20260906052442 | 73 | 236 | 1.7 | 3.5 | 0.00 | 0.00 | 0.00 | 72 | 1018.3 |
| 20260906051945 | 73 | 271 | 0.9 | 2.6 | 0.00 | 0.00 | 0.00 | 72 | 1018.2 |
| 20260906051549 | 73 | 281 | 0.9 | 2.6 | 0.00 | 0.00 | 0.00 | 72 | 1017.8 |
| 20260906051453 | 73 | 309 | 0.9 | 2.6 | 0.00 | 0.00 | 0.00 | 72 | 1018.2 |
| 20260906050944 | 72 | 127 | 0.0 | 0.9 | 0.00 | 0.00 | 0.00 | 69 | 1018.1 |
| 20260906050444 | 71 | 106 | 0.0 | 0.0 | 0.00 | 0.00 | 0.00 | 70 | 1018.1 |
| 20260906050047 | 70 | 141 | 0.0 | 0.0 | 0.00 | 0.00 | 0.00 | 69 | 1017.7 |
| 20260906045953 | 70 | 156 | 0.0 | 0.0 | 0.00 | 0.00 | 0.00 | 69 | 1018.1 |
| 20260906045444 | 70 | 158 | 0.0 | 0.0 | 0.00 | 0.00 | 0.00 | 69 | 1018.0 |
| 20260906044944 | 70 | 158 | 0.0 | 0.0 | 0.00 | 0.00 | 0.00 | 70 | 1018.0 |
| 20260906044542 | 69 | 159 | 0.0 | 0.0 | 0.00 | 0.00 | 0.00 | 71 | 1017.6 |
| 20260906044453 | 69 | 158 | 0.0 | 0.0 | 0.00 | 0.00 | 0.00 | 71 | 1017.9 |
| 20260906043955 | 68 | 158 | 0.0 | 0.0 | 0.00 | 0.00 | 0.00 | 72 | 1018.0 |
| 20260906043443 | 67 | 158 | 0.0 | 0.0 | 0.00 | 0.00 | 0.00 | 73 | 1017.9 |
| 20260906043043 | 67 | 159 | 0.0 | 0.0 | 0.00 | 0.00 | 0.00 | 74 | 1017.5 |
| 20260906043003 | 67 | 158 | 0.0 | 0.0 | 0.00 | 0.00 | 0.00 | 74 | 1017.8 |
| 20260906042444 | 66 | 216 | 0.0 | 0.0 | 0.00 | 0.00 | 0.00 | 75 | 1017.9 |
| 20260906041944 | 65 | 145 | 0.0 | 0.0 | 0.00 | 0.00 | 0.00 | 74 | 1017.8 |
| 20260906041544 | 65 | 224 | 0.0 | 0.0 | 0.00 | 0.00 | 0.00 | 74 | 1017.3 |
| 20260906041453 | 65 | 225 | 0.0 | 0.0 | 0.00 | 0.00 | 0.00 | 74 | 1017.7 |
| 20260906040944 | 65 | 207 | 0.0 | 0.0 | 0.00 | 0.00 | 0.00 | 73 | 1017.6 |
| 20260906040443 | 65 | 136 | 0.0 | 1.7 | 0.00 | 0.00 | 0.00 | 72 | 1017.5 |
| 20260906040046 | 65 | 143 | 0.0 | 1.7 | 0.00 | 0.00 | 0.00 | 72 | 1017.1 |
| 20260906035952 | 65 | 221 | 0.0 | 0.9 | 0.00 | 0.00 | 0.00 | 72 | 1017.5 |
| 20260906035444 | 65 | 232 | 0.0 | 0.9 | 0.00 | 0.00 | 0.00 | 71 | 1017.5 |
| 20260906034943 | 65 | 200 | 0.0 | 0.9 | 0.00 | 0.00 | 0.00 | 70 | 1017.4 |
| 20260906034543 | 65 | 200 | 0.0 | 0.9 | 0.00 | 0.00 | 0.00 | 70 | 1017.0 |
| 20260906034503 | 65 | 200 | 0.0 | 0.9 | 0.00 | 0.00 | 0.00 | 70 | 1017.3 |
| 20260906033944 | 65 | 228 | 0.0 | 0.9 | 0.00 | 0.00 | 0.00 | 68 | 1017.4 |
| 20260906033444 | 66 | 223 | 0.0 | 0.9 | 0.00 | 0.00 | 0.00 | 67 | 1017.3 |
| 20260906033047 | 66 | 141 | 0.0 | 0.9 | 0.00 | 0.00 | 0.00 | 66 | 1016.9 |
| 20260906032952 | 66 | 137 | 0.0 | 0.0 | 0.00 | 0.00 | 0.00 | 66 | 1017.3 |
| 20260906032443 | 66 | 141 | 0.0 | 0.9 | 0.00 | 0.00 | 0.00 | 65 | 1017.3 |
| 20260906031943 | 66 | 229 | 0.0 | 0.9 | 0.00 | 0.00 | 0.00 | 64 | 1017.3 |
| 20260906031555 | 66 | 237 | 0.0 | 0.9 | 0.00 | 0.00 | 0.00 | 63 | 1016.9 |
| 20260906031453 | 66 | 237 | 0.0 | 0.9 | 0.00 | 0.00 | 0.00 | 63 | 1017.3 |
| 20260906030943 | 66 | 153 | 0.0 | 1.7 | 0.00 | 0.00 | 0.00 | 62 | 1017.2 |
| 20260906030443 | 66 | 187 | 0.0 | 2.6 | 0.00 | 0.00 | 0.00 | 61 | 1017.2 |
| 20260906030044 | 66 | 119 | 0.0 | 2.6 | 0.00 | 0.00 | 0.00 | 61 | 1016.7 |
| 20260906025953 | 66 | 124 | 0.0 | 2.6 | 0.00 | 0.00 | 0.00 | 61 | 1017.1 |
| 20260906025443 | 66 | 120 | 0.0 | 1.7 | 0.00 | 0.00 | 0.00 | 61 | 1017.1 |
| 20260906024943 | 66 | 127 | 0.0 | 1.7 | 0.00 | 0.00 | 0.00 | 61 | 1017.1 |
| 20260906024543 | 66 | 172 | 0.0 | 0.0 | 0.00 | 0.00 | 0.00 | 62 | 1016.7 |
| 20260906024452 | 65 | 131 | 0.0 | 0.0 | 0.00 | 0.00 | 0.00 | 61 | 1017.0 |
| 20260906023944 | 65 | 219 | 0.0 | 0.0 | 0.00 | 0.00 | 0.00 | 62 | 1017.0 |
| 20260906023444 | 65 | 94 | 0.0 | 0.0 | 0.00 | 0.00 | 0.00 | 62 | 1017.0 |
| 20260906023044 | 65 | 228 | 0.0 | 0.0 | 0.00 | 0.00 | 0.00 | 61 | 1016.6 |
| 20260906022953 | 65 | 230 | 0.0 | 0.0 | 0.00 | 0.00 | 0.00 | 61 | 1017.0 |
| 20260906022445 | 65 | 229 | 0.0 | 0.0 | 0.00 | 0.00 | 0.00 | 61 | 1016.9 |
| 20260906022007 | 66 | 135 | 0.0 | 0.0 | 0.00 | 0.00 | 0.00 | 61 | 1017.0 |
| 20260906021544 | 66 | 221 | 0.0 | 0.0 | 0.00 | 0.00 | 0.00 | 60 | 1016.5 |
| 20260906021503 | 66 | 223 | 0.0 | 0.0 | 0.00 | 0.00 | 0.00 | 60 | 1016.9 |
| 20260906020943 | 66 | 166 | 0.0 | 0.0 | 0.00 | 0.00 | 0.00 | 60 | 1016.9 |
| 20260906020444 | 66 | 160 | 0.0 | 0.0 | 0.00 | 0.00 | 0.00 | 59 | 1016.9 |
| 20260906020043 | 67 | 195 | 0.0 | 0.0 | 0.00 | 0.00 | 0.00 | 59 | 1016.5 |
| 20260906015954 | 67 | 195 | 0.0 | 0.0 | 0.00 | 0.00 | 0.00 | 59 | 1016.9 |
| 20260906015454 | 67 | 217 | 0.0 | 0.0 | 0.00 | 0.00 | 0.00 | 58 | 1017.0 |
| 20260906014945 | 67 | 266 | 0.0 | 0.0 | 0.00 | 0.00 | 0.00 | 58 | 1017.0 |
| 20260906014544 | 67 | 266 | 0.0 | 0.9 | 0.00 | 0.00 | 0.00 | 58 | 1016.6 |
| 20260906014452 | 67 | 266 | 0.0 | 0.9 | 0.00 | 0.00 | 0.00 | 58 | 1017.0 |
| 20260906013945 | 67 | 266 | 0.0 | 0.9 | 0.00 | 0.00 | 0.00 | 58 | 1017.0 |
| 20260906013444 | 67 | 266 | 0.0 | 0.9 | 0.00 | 0.00 | 0.00 | 57 | 1016.9 |
| 20260906013044 | 68 | 233 | 0.0 | 0.9 | 0.00 | 0.00 | 0.00 | 57 | 1016.5 |
| 20260906012952 | 68 | 231 | 0.0 | 0.9 | 0.00 | 0.00 | 0.00 | 57 | 1016.9 |
| 20260906012443 | 68 | 139 | 0.0 | 1.7 | 0.00 | 0.00 | 0.00 | 57 | 1016.9 |
| 20260906011943 | 68 | 178 | 0.0 | 1.7 | 0.00 | 0.00 | 0.00 | 57 | 1016.9 |
| 20260906011544 | 68 | 135 | 0.0 | 1.7 | 0.00 | 0.00 | 0.00 | 56 | 1016.5 |
| 20260906011452 | 68 | 135 | 0.0 | 1.7 | 0.00 | 0.00 | 0.00 | 56 | 1016.9 |
| 20260906010945 | 68 | 226 | 0.0 | 1.7 | 0.00 | 0.00 | 0.00 | 56 | 1016.9 |
| 20260906010444 | 68 | 161 | 0.0 | 3.5 | 0.00 | 0.00 | 0.00 | 56 | 1016.9 |
| 20260906010044 | 68 | 210 | 0.0 | 3.5 | 0.00 | 0.00 | 0.00 | 56 | 1016.5 |
| 20260906005954 | 68 | 203 | 0.9 | 3.5 | 0.00 | 0.00 | 0.00 | 56 | 1016.9 |
| 20260906005455 | 68 | 192 | 0.0 | 1.7 | 0.00 | 0.00 | 0.00 | 56 | 1016.9 |
| 20260906004944 | 68 | 224 | 0.0 | 1.7 | 0.00 | 0.00 | 0.00 | 56 | 1016.9 |
| 20260906004544 | 68 | 221 | 0.0 | 2.6 | 0.00 | 0.00 | 0.00 | 56 | 1016.7 |
| 20260906004453 | 68 | 219 | 0.0 | 2.6 | 0.00 | 0.00 | 0.00 | 56 | 1017.1 |
| 20260906003944 | 68 | 120 | 0.9 | 2.6 | 0.00 | 0.00 | 0.00 | 56 | 1017.0 |
| 20260906003444 | 68 | 143 | 0.9 | 2.6 | 0.00 | 0.00 | 0.00 | 56 | 1017.0 |
| 20260906003044 | 68 | 235 | 0.0 | 2.6 | 0.00 | 0.00 | 0.00 | 57 | 1016.6 |
| 20260906002953 | 69 | 226 | 0.9 | 2.6 | 0.00 | 0.00 | 0.00 | 56 | 1017.0 |
| 20260906002445 | 69 | 210 | 0.0 | 2.6 | 0.00 | 0.00 | 0.00 | 56 | 1017.0 |
| 20260906001945 | 69 | 241 | 0.9 | 2.6 | 0.00 | 0.00 | 0.00 | 56 | 1016.9 |
| 20260906001544 | 69 | 205 | 0.0 | 1.7 | 0.00 | 0.00 | 0.00 | 56 | 1016.6 |
| 20260906001453 | 69 | 219 | 0.0 | 1.7 | 0.00 | 0.00 | 0.00 | 56 | 1017.0 |
| 20260906000945 | 69 | 233 | 0.0 | 3.5 | 0.00 | 0.00 | 0.00 | 57 | 1017.1 |
| 20260906000445 | 69 | 192 | 0.9 | 3.5 | 0.00 | 0.00 | 0.00 | 56 | 1017.0 |
| 20260906000045 | 69 | 256 | 0.0 | 3.5 | 0.00 | 0.00 | 0.00 | 57 | 1016.6 |
| 20260905235954 | 68 | 210 | 0.9 | 3.5 | 0.00 | 0.00 | 0.00 | 57 | 1017.0 |
| 20260905235456 | 69 | 254 | 0.9 | 2.6 | 0.00 | 0.00 | 0.00 | 57 | 1017.0 |
| 20260905234945 | 69 | 169 | 0.9 | 2.6 | 0.00 | 0.00 | 0.00 | 57 | 1017.1 |
| 20260905234545 | 69 | 141 | 0.0 | 0.9 | 0.00 | 0.00 | 0.00 | 57 | 1016.9 |
| 20260905234453 | 69 | 141 | 0.0 | 0.9 | 0.00 | 0.00 | 0.00 | 57 | 1017.3 |
| 20260905233944 | 69 | 220 | 0.0 | 0.9 | 0.00 | 0.00 | 0.00 | 57 | 1017.2 |
| 20260905233455 | 69 | 223 | 0.0 | 1.7 | 0.00 | 0.00 | 0.00 | 57 | 1017.3 |
| 20260905233048 | 69 | 159 | 0.0 | 1.7 | 0.00 | 0.00 | 0.00 | 56 | 1016.9 |
| 20260905233004 | 69 | 159 | 0.0 | 1.7 | 0.00 | 0.00 | 0.00 | 56 | 1017.3 |
| 20260905232445 | 69 | 176 | 0.0 | 1.7 | 0.00 | 0.00 | 0.00 | 57 | 1017.3 |
| 20260905231944 | 69 | 172 | 0.0 | 2.6 | 0.00 | 0.00 | 0.00 | 57 | 1017.1 |
| 20260905231545 | 69 | 189 | 0.9 | 2.6 | 0.00 | 0.00 | 0.00 | 56 | 1016.7 |
| 20260905231454 | 69 | 142 | 0.9 | 2.6 | 0.00 | 0.00 | 0.00 | 56 | 1017.1 |
| 20260905230944 | 70 | 199 | 0.9 | 1.7 | 0.00 | 0.00 | 0.00 | 56 | 1017.3 |
| 20260905230444 | 70 | 165 | 0.0 | 3.5 | 0.00 | 0.00 | 0.00 | 56 | 1017.3 |
| 20260905230050 | 69 | 270 | 0.0 | 3.5 | 0.00 | 0.00 | 0.00 | 57 | 1016.9 |
| 20260905225954 | 69 | 122 | 0.9 | 3.5 | 0.00 | 0.00 | 0.00 | 57 | 1017.4 |
| 20260905225444 | 69 | 143 | 0.9 | 3.5 | 0.00 | 0.00 | 0.00 | 58 | 1017.4 |
| 20260905224944 | 69 | 266 | 0.9 | 1.7 | 0.00 | 0.00 | 0.00 | 58 | 1017.4 |
| 20260905224600 | 69 | 200 | 0.0 | 0.9 | 0.00 | 0.00 | 0.00 | 58 | 1017.0 |
| 20260905224453 | 69 | 200 | 0.0 | 0.9 | 0.00 | 0.00 | 0.00 | 58 | 1017.5 |
| 20260905223955 | 69 | 217 | 0.0 | 0.9 | 0.00 | 0.00 | 0.00 | 58 | 1017.5 |
| 20260905223455 | 70 | 121 | 0.0 | 0.9 | 0.00 | 0.00 | 0.00 | 58 | 1017.5 |
| 20260905223044 | 70 | 37 | 0.0 | 1.7 | 0.00 | 0.00 | 0.00 | 58 | 1017.1 |
| 20260905222954 | 70 | 141 | 0.0 | 1.7 | 0.00 | 0.00 | 0.00 | 58 | 1017.5 |
| 20260905222445 | 70 | 203 | 0.0 | 2.6 | 0.00 | 0.00 | 0.00 | 58 | 1017.4 |
| 20260905221945 | 70 | 220 | 0.0 | 3.5 | 0.00 | 0.00 | 0.00 | 58 | 1017.4 |
| 20260905221556 | 70 | 193 | 0.0 | 3.5 | 0.00 | 0.00 | 0.00 | 58 | 1017.0 |
| 20260905221453 | 70 | 198 | 0.9 | 3.5 | 0.00 | 0.00 | 0.00 | 58 | 1017.4 |
| 20260905220956 | 69 | 148 | 0.9 | 2.6 | 0.00 | 0.00 | 0.00 | 59 | 1017.3 |
| 20260905220444 | 69 | 221 | 0.9 | 2.6 | 0.00 | 0.00 | 0.00 | 59 | 1017.4 |
| 20260905220053 | 70 | 159 | 0.9 | 2.6 | 0.00 | 0.00 | 0.00 | 59 | 1017.1 |
| 20260905215954 | 70 | 160 | 1.7 | 2.6 | 0.00 | 0.00 | 0.00 | 59 | 1017.5 |
| 20260905215444 | 70 | 221 | 0.0 | 1.7 | 0.00 | 0.00 | 0.00 | 59 | 1017.5 |
| 20260905214945 | 70 | 233 | 0.9 | 1.7 | 0.00 | 0.00 | 0.00 | 59 | 1017.5 |
| 20260905214546 | 70 | 191 | 0.0 | 1.7 | 0.00 | 0.00 | 0.00 | 59 | 1017.1 |
| 20260905214454 | 70 | 138 | 0.9 | 1.7 | 0.00 | 0.00 | 0.00 | 59 | 1017.6 |
| 20260905213945 | 70 | 109 | 0.0 | 1.7 | 0.00 | 0.00 | 0.00 | 59 | 1017.7 |
| 20260905213445 | 70 | 154 | 0.0 | 1.7 | 0.00 | 0.00 | 0.00 | 58 | 1017.7 |
| 20260905213049 | 70 | 204 | 0.0 | 1.7 | 0.00 | 0.00 | 0.00 | 59 | 1017.2 |
| 20260905212954 | 70 | 188 | 0.0 | 1.7 | 0.00 | 0.00 | 0.00 | 58 | 1017.6 |
| 20260905212445 | 70 | 187 | 0.0 | 1.7 | 0.00 | 0.00 | 0.00 | 59 | 1017.7 |
| 20260905211945 | 70 | 136 | 0.0 | 1.7 | 0.00 | 0.00 | 0.00 | 59 | 1017.7 |
| 20260905211548 | 70 | 237 | 0.0 | 1.7 | 0.00 | 0.00 | 0.00 | 59 | 1017.3 |
| 20260905211454 | 70 | 154 | 0.0 | 2.6 | 0.00 | 0.00 | 0.00 | 59 | 1017.7 |
| 20260905210945 | 70 | 155 | 0.0 | 2.6 | 0.00 | 0.00 | 0.00 | 59 | 1017.6 |
| 20260905210445 | 71 | 124 | 0.9 | 2.6 | 0.00 | 0.00 | 0.00 | 58 | 1017.7 |
| 20260905210052 | 71 | 163 | 0.9 | 2.6 | 0.00 | 0.00 | 0.00 | 57 | 1017.3 |
| 20260905205956 | 71 | 158 | 1.7 | 2.6 | 0.00 | 0.00 | 0.00 | 57 | 1017.7 |
| 20260905205445 | 72 | 205 | 0.0 | 0.9 | 0.00 | 0.00 | 0.00 | 56 | 1017.8 |
| 20260905204956 | 72 | 205 | 0.0 | 0.9 | 0.00 | 0.00 | 0.00 | 55 | 1017.9 |
| 20260905204554 | 72 | 203 | 0.0 | 0.9 | 0.00 | 0.00 | 0.00 | 55 | 1017.5 |
| 20260905204454 | 72 | 203 | 0.0 | 0.9 | 0.00 | 0.00 | 0.00 | 55 | 1017.9 |
| 20260905203945 | 72 | 203 | 0.0 | 1.7 | 0.00 | 0.00 | 0.00 | 54 | 1017.8 |
| 20260905203445 | 72 | 163 | 0.0 | 1.7 | 0.00 | 0.00 | 0.00 | 53 | 1017.8 |
| 20260905203110 | 72 | 150 | 0.0 | 1.7 | 0.00 | 0.00 | 0.00 | 52 | 1017.3 |
| 20260905202954 | 72 | 150 | 0.0 | 1.7 | 0.00 | 0.00 | 0.00 | 52 | 1017.8 |
| 20260905202456 | 73 | 164 | 0.0 | 1.7 | 0.00 | 0.00 | 0.00 | 52 | 1017.8 |
| 20260905201945 | 73 | 103 | 0.0 | 2.6 | 0.00 | 0.00 | 0.00 | 51 | 1017.7 |
| 20260905201546 | 73 | 133 | 0.0 | 2.6 | 0.00 | 0.00 | 0.00 | 51 | 1017.3 |
| 20260905201454 | 73 | 201 | 0.9 | 2.6 | 0.00 | 0.00 | 0.00 | 51 | 1017.8 |
| 20260905200945 | 73 | 205 | 0.0 | 2.6 | 0.00 | 0.00 | 0.00 | 50 | 1017.7 |
| 20260905200445 | 73 | 135 | 0.0 | 1.7 | 0.00 | 0.00 | 0.00 | 50 | 1017.8 |
| 20260905200054 | 73 | 187 | 0.0 | 1.7 | 0.00 | 0.00 | 0.00 | 51 | 1017.5 |
| 20260905195955 | 73 | 159 | 0.0 | 1.7 | 0.00 | 0.00 | 0.00 | 50 | 1017.8 |
| 20260905195445 | 73 | 164 | 0.0 | 1.7 | 0.00 | 0.00 | 0.00 | 50 | 1017.9 |
| 20260905194946 | 73 | 168 | 0.0 | 0.9 | 0.00 | 0.00 | 0.00 | 50 | 1017.9 |
| 20260905194545 | 73 | 167 | 0.0 | 1.7 | 0.00 | 0.00 | 0.00 | 50 | 1017.4 |
| 20260905194454 | 73 | 167 | 0.0 | 2.6 | 0.00 | 0.00 | 0.00 | 50 | 1017.9 |
| 20260905193946 | 73 | 229 | 0.9 | 2.6 | 0.00 | 0.00 | 0.00 | 50 | 1017.8 |
| 20260905193445 | 73 | 108 | 0.0 | 2.6 | 0.00 | 0.00 | 0.00 | 50 | 1017.8 |
| 20260905193045 | 73 | 153 | 0.0 | 2.6 | 0.00 | 0.00 | 0.00 | 51 | 1017.3 |
| 20260905192954 | 73 | 164 | 0.9 | 2.6 | 0.00 | 0.00 | 0.00 | 51 | 1017.8 |
| 20260905192445 | 74 | 168 | 0.9 | 1.7 | 0.00 | 0.00 | 0.00 | 51 | 1017.8 |
| 20260905191945 | 74 | 226 | 0.0 | 1.7 | 0.00 | 0.00 | 0.00 | 51 | 1017.8 |
| 20260905191546 | 74 | 222 | 0.0 | 1.7 | 0.00 | 0.00 | 0.00 | 51 | 1017.5 |
| 20260905191455 | 74 | 159 | 0.0 | 1.7 | 0.00 | 0.00 | 0.00 | 51 | 1017.8 |
| 20260905190957 | 74 | 160 | 0.0 | 1.7 | 0.00 | 0.00 | 0.00 | 51 | 1017.8 |
| 20260905190446 | 75 | 161 | 0.9 | 1.7 | 0.00 | 0.00 | 0.00 | 50 | 1017.8 |
| 20260905190046 | 75 | 157 | 0.0 | 0.9 | 0.00 | 0.00 | 0.00 | 50 | 1017.5 |
| 20260905185955 | 75 | 133 | 0.0 | 0.9 | 0.00 | 0.00 | 0.00 | 50 | 1017.9 |
| 20260905185446 | 76 | 211 | 0.0 | 1.7 | 0.00 | 0.00 | 0.00 | 50 | 1017.8 |
| 20260905184946 | 76 | 243 | 0.0 | 1.7 | 0.00 | 0.00 | 0.00 | 50 | 1017.8 |
| 20260905184545 | 76 | 155 | 0.0 | 0.9 | 0.00 | 0.00 | 0.00 | 50 | 1017.4 |
| 20260905184506 | 76 | 136 | 0.0 | 0.9 | 0.00 | 0.00 | 0.00 | 50 | 1017.8 |
| 20260905183946 | 76 | 136 | 0.0 | 0.9 | 0.00 | 0.00 | 0.00 | 50 | 1017.7 |
| 20260905183446 | 76 | 244 | 0.0 | 0.9 | 0.00 | 0.00 | 0.00 | 49 | 1017.8 |
| 20260905183045 | 77 | 245 | 0.0 | 0.9 | 0.00 | 0.00 | 0.00 | 49 | 1017.4 |
| 20260905182955 | 77 | 245 | 0.0 | 0.9 | 0.00 | 0.00 | 0.00 | 49 | 1017.7 |
| 20260905182457 | 77 | 246 | 0.0 | 2.6 | 0.00 | 0.00 | 0.00 | 48 | 1017.7 |
| 20260905181957 | 77 | 183 | 0.9 | 2.6 | 0.00 | 0.00 | 0.00 | 48 | 1017.6 |
| 20260905181602 | 77 | 172 | 0.0 | 1.7 | 0.00 | 0.00 | 0.00 | 48 | 1017.2 |
| 20260905181506 | 77 | 203 | 0.0 | 1.7 | 0.00 | 0.00 | 0.00 | 49 | 1017.6 |
| 20260905180946 | 77 | 170 | 0.9 | 1.7 | 0.00 | 0.00 | 0.00 | 49 | 1017.5 |
| 20260905180446 | 77 | 161 | 0.0 | 0.9 | 0.00 | 0.00 | 0.00 | 49 | 1017.6 |
| 20260905180046 | 77 | 200 | 0.0 | 1.7 | 0.00 | 0.00 | 0.00 | 49 | 1017.1 |
| 20260905175955 | 77 | 200 | 0.0 | 1.7 | 0.00 | 0.00 | 0.00 | 49 | 1017.5 |
| 20260905175447 | 78 | 200 | 0.9 | 2.6 | 0.00 | 0.00 | 0.00 | 48 | 1017.3 |
| 20260905174946 | 78 | 198 | 0.0 | 1.7 | 0.00 | 0.00 | 0.00 | 48 | 1017.3 |
| 20260905174551 | 78 | 220 | 0.0 | 3.5 | 0.00 | 0.00 | 0.00 | 47 | 1016.9 |
| 20260905174455 | 78 | 144 | 0.0 | 3.5 | 0.00 | 0.00 | 0.00 | 47 | 1017.3 |
| 20260905173946 | 79 | 191 | 1.7 | 3.5 | 0.00 | 0.00 | 0.00 | 47 | 1017.3 |
| 20260905173446 | 79 | 184 | 0.9 | 4.3 | 0.00 | 0.00 | 0.00 | 46 | 1017.3 |
| 20260905173046 | 79 | 181 | 1.7 | 4.3 | 0.00 | 0.00 | 0.00 | 46 | 1016.7 |
| 20260905173006 | 80 | 182 | 1.7 | 4.3 | 0.00 | 0.00 | 0.00 | 45 | 1017.2 |
| 20260905172446 | 80 | 226 | 0.9 | 3.5 | 0.00 | 0.00 | 0.00 | 45 | 1017.1 |
| 20260905171946 | 80 | 214 | 0.9 | 4.3 | 0.00 | 0.00 | 0.00 | 44 | 1017.1 |
| 20260905171546 | 81 | 205 | 0.9 | 4.3 | 0.00 | 0.00 | 0.00 | 44 | 1016.7 |
| 20260905171455 | 81 | 149 | 0.9 | 1.7 | 0.00 | 0.00 | 0.00 | 44 | 1017.1 |
| 20260905170946 | 81 | 229 | 0.0 | 2.6 | 0.00 | 0.00 | 0.00 | 44 | 1017.1 |
| 20260905170446 | 82 | 238 | 0.0 | 3.5 | 0.00 | 0.00 | 0.00 | 44 | 1017.0 |
| 20260905170046 | 82 | 205 | 0.9 | 5.2 | 0.00 | 0.00 | 0.00 | 43 | 1016.4 |
| 20260905165955 | 82 | 204 | 1.7 | 5.2 | 0.00 | 0.00 | 0.00 | 43 | 1016.8 |
| 20260905165457 | 82 | 220 | 2.6 | 5.2 | 0.00 | 0.00 | 0.00 | 42 | 1016.8 |
| 20260905164946 | 83 | 171 | 2.6 | 4.3 | 0.00 | 0.00 | 0.00 | 42 | 1016.8 |
| 20260905164546 | 83 | 173 | 1.7 | 4.3 | 0.00 | 0.00 | 0.00 | 41 | 1016.4 |
| 20260905164455 | 83 | 210 | 1.7 | 4.3 | 0.00 | 0.00 | 0.00 | 41 | 1016.8 |
| 20260905163946 | 84 | 230 | 1.7 | 4.3 | 0.00 | 0.00 | 0.00 | 41 | 1016.8 |
| 20260905163446 | 84 | 150 | 1.7 | 5.2 | 0.00 | 0.00 | 0.00 | 41 | 1016.9 |
| 20260905163048 | 85 | 168 | 1.7 | 6.1 | 0.00 | 0.00 | 0.00 | 42 | 1016.4 |
| 20260905162955 | 85 | 224 | 1.7 | 6.1 | 0.00 | 0.00 | 0.00 | 42 | 1016.8 |
| 20260905162446 | 86 | 150 | 1.7 | 6.1 | 0.00 | 0.00 | 0.00 | 40 | 1016.9 |
| 20260905161946 | 87 | 139 | 3.5 | 6.1 | 0.00 | 0.00 | 0.00 | 41 | 1016.8 |
| 20260905161546 | 87 | 220 | 0.9 | 5.2 | 0.00 | 0.00 | 0.00 | 39 | 1016.5 |
| 20260905161456 | 87 | 140 | 1.7 | 6.1 | 0.00 | 0.00 | 0.00 | 39 | 1016.9 |
| 20260905160957 | 88 | 153 | 2.6 | 6.1 | 0.00 | 0.00 | 0.00 | 36 | 1016.9 |
| 20260905160446 | 88 | 169 | 1.7 | 6.1 | 0.00 | 0.00 | 0.00 | 35 | 1016.9 |
| 20260905160114 | 88 | 154 | 1.7 | 6.1 | 0.00 | 0.00 | 0.00 | 34 | 1016.5 |
| 20260905160006 | 89 | 157 | 3.5 | 6.1 | 0.00 | 0.00 | 0.00 | 33 | 1016.9 |
| 20260905155447 | 89 | 252 | 1.7 | 5.2 | 0.00 | 0.00 | 0.00 | 36 | 1016.9 |
| 20260905154946 | 89 | 162 | 1.7 | 6.1 | 0.00 | 0.00 | 0.00 | 36 | 1017.0 |
| 20260905154549 | 89 | 123 | 2.6 | 6.1 | 0.00 | 0.00 | 0.00 | 37 | 1016.5 |
| 20260905154507 | 90 | 257 | 2.6 | 6.1 | 0.00 | 0.00 | 0.00 | 37 | 1016.9 |
| 20260905153946 | 90 | 282 | 2.6 | 6.1 | 0.00 | 0.00 | 0.00 | 37 | 1016.8 |
| 20260905153447 | 90 | 226 | 1.7 | 8.7 | 0.00 | 0.00 | 0.00 | 37 | 1016.8 |
| 20260905153047 | 90 | 195 | 1.7 | 8.7 | 0.00 | 0.00 | 0.00 | 37 | 1016.2 |
| 20260905152956 | 90 | 91 | 1.7 | 8.7 | 0.00 | 0.00 | 0.00 | 37 | 1016.7 |
| 20260905152458 | 90 | 139 | 2.6 | 7.0 | 0.00 | 0.00 | 0.00 | 37 | 1016.7 |
| 20260905151947 | 90 | 206 | 2.6 | 8.7 | 0.00 | 0.00 | 0.00 | 36 | 1016.6 |
| 20260905151547 | 91 | 158 | 2.6 | 8.7 | 0.00 | 0.00 | 0.00 | 35 | 1016.3 |
| 20260905151507 | 91 | 182 | 3.5 | 8.7 | 0.00 | 0.00 | 0.00 | 35 | 1016.7 |
| 20260905150947 | 91 | 225 | 1.7 | 6.1 | 0.00 | 0.00 | 0.00 | 36 | 1016.8 |
| 20260905150447 | 91 | 243 | 1.7 | 9.6 | 0.00 | 0.00 | 0.00 | 37 | 1016.7 |
| 20260905150047 | 92 | 167 | 2.6 | 9.6 | 0.00 | 0.00 | 0.00 | 37 | 1016.2 |
| 20260905145956 | 92 | 255 | 3.5 | 9.6 | 0.00 | 0.00 | 0.00 | 37 | 1016.6 |
| 20260905145447 | 92 | 231 | 1.7 | 6.1 | 0.00 | 0.00 | 0.00 | 33 | 1016.6 |
| 20260905144947 | 92 | 188 | 2.6 | 7.8 | 0.00 | 0.00 | 0.00 | 34 | 1016.6 |
| 20260905144546 | 92 | 191 | 2.6 | 7.8 | 0.00 | 0.00 | 0.00 | 32 | 1016.1 |
| 20260905144456 | 92 | 243 | 3.5 | 7.8 | 0.00 | 0.00 | 0.00 | 32 | 1016.6 |
| 20260905143948 | 93 | 292 | 2.6 | 5.2 | 0.00 | 0.00 | 0.00 | 32 | 1016.5 |
| 20260905143448 | 93 | 256 | 0.9 | 6.1 | 0.00 | 0.00 | 0.00 | 30 | 1016.6 |
| 20260905143047 | 93 | 266 | 0.0 | 6.1 | 0.00 | 0.00 | 0.00 | 30 | 1016.3 |
| 20260905142956 | 93 | 259 | 1.7 | 6.1 | 0.00 | 0.00 | 0.00 | 30 | 1016.7 |
| 20260905142449 | 93 | 298 | 1.7 | 5.2 | 0.00 | 0.00 | 0.00 | 30 | 1016.7 |
| 20260905141947 | 93 | 314 | 0.9 | 5.2 | 0.00 | 0.00 | 0.00 | 29 | 1016.7 |
| 20260905141547 | 93 | 9 | 0.9 | 6.1 | 0.00 | 0.00 | 0.00 | 29 | 1016.4 |
| 20260905141456 | 93 | 155 | 1.7 | 6.1 | 0.00 | 0.00 | 0.00 | 29 | 1016.8 |
| 20260905140947 | 93 | 273 | 2.6 | 6.1 | 0.00 | 0.00 | 0.00 | 29 | 1016.9 |
| 20260905140448 | 93 | 335 | 2.6 | 5.2 | 0.00 | 0.00 | 0.00 | 29 | 1016.8 |
| 20260905140047 | 93 | 297 | 1.7 | 6.1 | 0.00 | 0.00 | 0.00 | 29 | 1016.5 |
| 20260905135958 | 93 | 273 | 1.7 | 6.1 | 0.00 | 0.00 | 0.00 | 29 | 1016.9 |
| 20260905135447 | 93 | 290 | 2.6 | 6.1 | 0.00 | 0.00 | 0.00 | 29 | 1017.0 |
| 20260905134947 | 92 | 238 | 1.7 | 5.2 | 0.00 | 0.00 | 0.00 | 29 | 1017.1 |
| 20260905134548 | 92 | 304 | 2.6 | 7.0 | 0.00 | 0.00 | 0.00 | 29 | 1016.7 |
| 20260905134456 | 92 | 280 | 2.6 | 7.0 | 0.00 | 0.00 | 0.00 | 29 | 1017.1 |
| 20260905133947 | 92 | 322 | 2.6 | 7.0 | 0.00 | 0.00 | 0.00 | 27 | 1017.2 |
| 20260905133447 | 93 | 317 | 2.6 | 7.0 | 0.00 | 0.00 | 0.00 | 27 | 1017.2 |
| 20260905133047 | 92 | 237 | 2.6 | 6.1 | 0.00 | 0.00 | 0.00 | 27 | 1016.9 |
| 20260905133007 | 92 | 288 | 3.5 | 6.1 | 0.00 | 0.00 | 0.00 | 27 | 1017.3 |
| 20260905132459 | 92 | 297 | 2.6 | 7.0 | 0.00 | 0.00 | 0.00 | 27 | 1017.3 |
| 20260905131958 | 92 | 309 | 3.5 | 7.0 | 0.00 | 0.00 | 0.00 | 27 | 1017.4 |
| 20260905131548 | 92 | 281 | 3.5 | 7.0 | 0.00 | 0.00 | 0.00 | 28 | 1017.0 |
| 20260905131456 | 92 | 336 | 2.6 | 6.1 | 0.00 | 0.00 | 0.00 | 27 | 1017.4 |
| 20260905130949 | 92 | 295 | 2.6 | 6.1 | 0.00 | 0.00 | 0.00 | 27 | 1017.5 |
| 20260905130449 | 92 | 309 | 2.6 | 7.0 | 0.00 | 0.00 | 0.00 | 26 | 1017.5 |
| 20260905130048 | 92 | 297 | 2.6 | 7.0 | 0.00 | 0.00 | 0.00 | 26 | 1017.1 |
| 20260905125957 | 92 | 38 | 3.5 | 7.0 | 0.00 | 0.00 | 0.00 | 26 | 1017.5 |
| 20260905125449 | 92 | 288 | 2.6 | 7.0 | 0.00 | 0.00 | 0.00 | 26 | 1017.5 |
| 20260905124949 | 92 | 302 | 3.5 | 8.7 | 0.00 | 0.00 | 0.00 | 26 | 1017.6 |
| 20260905124552 | 92 | 304 | 2.6 | 8.7 | 0.00 | 0.00 | 0.00 | 26 | 1017.3 |
| 20260905124456 | 92 | 311 | 1.7 | 5.2 | 0.00 | 0.00 | 0.00 | 27 | 1017.6 |
| 20260905123947 | 91 | 37 | 2.6 | 7.0 | 0.00 | 0.00 | 0.00 | 27 | 1017.7 |
| 20260905123448 | 91 | 347 | 3.5 | 8.7 | 0.00 | 0.00 | 0.00 | 27 | 1017.7 |
| 20260905123047 | 91 | 319 | 4.3 | 8.7 | 0.00 | 0.00 | 0.00 | 27 | 1017.4 |
| 20260905122956 | 91 | 326 | 5.2 | 8.7 | 0.00 | 0.00 | 0.00 | 27 | 1017.8 |
| 20260905122459 | 91 | 314 | 5.2 | 7.8 | 0.00 | 0.00 | 0.00 | 27 | 1017.9 |
| 20260905121949 | 91 | 306 | 3.5 | 7.8 | 0.00 | 0.00 | 0.00 | 27 | 1018.0 |
| 20260905121547 | 92 | 304 | 2.6 | 6.1 | 0.00 | 0.00 | 0.00 | 27 | 1017.6 |
| 20260905121458 | 92 | 230 | 2.6 | 6.1 | 0.00 | 0.00 | 0.00 | 27 | 1017.9 |
| 20260905120948 | 91 | 23 | 2.6 | 6.1 | 0.00 | 0.00 | 0.00 | 27 | 1018.0 |
| 20260905120449 | 91 | 292 | 3.5 | 7.8 | 0.00 | 0.00 | 0.00 | 27 | 1018.1 |
| 20260905120100 | 91 | 288 | 2.6 | 7.8 | 0.00 | 0.00 | 0.00 | 27 | 1017.9 |
| 20260905115957 | 91 | 297 | 3.5 | 7.8 | 0.00 | 0.00 | 0.00 | 28 | 1018.2 |
| 20260905115447 | 91 | 288 | 3.5 | 7.8 | 0.00 | 0.00 | 0.00 | 28 | 1018.3 |
| 20260905114949 | 91 | 325 | 4.3 | 7.8 | 0.00 | 0.00 | 0.00 | 28 | 1018.5 |
| 20260905114548 | 91 | 282 | 2.6 | 7.0 | 0.00 | 0.00 | 0.00 | 29 | 1018.0 |
| 20260905114458 | 91 | 297 | 2.6 | 7.0 | 0.00 | 0.00 | 0.00 | 30 | 1018.4 |
| 20260905113948 | 90 | 296 | 4.3 | 9.6 | 0.00 | 0.00 | 0.00 | 31 | 1018.5 |
| 20260905113449 | 91 | 289 | 3.5 | 8.7 | 0.00 | 0.00 | 0.00 | 31 | 1018.4 |
| 20260905113048 | 90 | 304 | 1.7 | 8.7 | 0.00 | 0.00 | 0.00 | 32 | 1018.0 |
| 20260905112957 | 90 | 323 | 1.7 | 8.7 | 0.00 | 0.00 | 0.00 | 32 | 1018.4 |
| 20260905112449 | 90 | 286 | 3.5 | 7.8 | 0.00 | 0.00 | 0.00 | 31 | 1018.5 |
| 20260905111948 | 90 | 340 | 3.5 | 7.8 | 0.00 | 0.00 | 0.00 | 31 | 1018.5 |
| 20260905111605 | 89 | 282 | 3.5 | 7.8 | 0.00 | 0.00 | 0.00 | 31 | 1018.1 |
| 20260905111508 | 89 | 342 | 4.3 | 8.7 | 0.00 | 0.00 | 0.00 | 32 | 1018.5 |
| 20260905110949 | 90 | 323 | 3.5 | 8.7 | 0.00 | 0.00 | 0.00 | 31 | 1018.4 |
| 20260905110501 | 90 | 239 | 2.6 | 7.0 | 0.00 | 0.00 | 0.00 | 33 | 1018.5 |
| 20260905110053 | 89 | 294 | 3.5 | 7.0 | 0.00 | 0.00 | 0.00 | 32 | 1018.2 |
| 20260905105958 | 90 | 314 | 3.5 | 7.0 | 0.00 | 0.00 | 0.00 | 32 | 1018.5 |
| 20260905105449 | 89 | 320 | 2.6 | 8.7 | 0.00 | 0.00 | 0.00 | 31 | 1018.6 |
| 20260905104948 | 89 | 272 | 4.3 | 8.7 | 0.00 | 0.00 | 0.00 | 33 | 1018.7 |
| 20260905104548 | 89 | 301 | 1.7 | 7.8 | 0.00 | 0.00 | 0.00 | 34 | 1018.3 |
| 20260905104457 | 89 | 258 | 3.5 | 7.8 | 0.00 | 0.00 | 0.00 | 34 | 1018.7 |
| 20260905103948 | 89 | 308 | 1.7 | 6.1 | 0.00 | 0.00 | 0.00 | 34 | 1018.8 |
| 20260905103448 | 89 | 319 | 2.6 | 5.2 | 0.00 | 0.00 | 0.00 | 35 | 1018.8 |
| 20260905103052 | 89 | 273 | 2.6 | 7.8 | 0.00 | 0.00 | 0.00 | 35 | 1018.5 |
| 20260905102959 | 89 | 319 | 2.6 | 7.8 | 0.00 | 0.00 | 0.00 | 35 | 1018.8 |
| 20260905102500 | 89 | 288 | 3.5 | 7.8 | 0.00 | 0.00 | 0.00 | 35 | 1018.8 |
| 20260905101948 | 88 | 29 | 2.6 | 7.0 | 0.00 | 0.00 | 0.00 | 36 | 1018.9 |
| 20260905101548 | 88 | 313 | 2.6 | 7.0 | 0.00 | 0.00 | 0.00 | 36 | 1018.5 |
| 20260905101458 | 88 | 294 | 3.5 | 9.6 | 0.00 | 0.00 | 0.00 | 35 | 1019.0 |
| 20260905100949 | 88 | 309 | 3.5 | 9.6 | 0.00 | 0.00 | 0.00 | 37 | 1019.0 |
| 20260905100448 | 89 | 342 | 2.6 | 6.1 | 0.00 | 0.00 | 0.00 | 35 | 1019.0 |
| 20260905100052 | 88 | 291 | 1.7 | 7.0 | 0.00 | 0.00 | 0.00 | 37 | 1018.6 |
| 20260905095958 | 88 | 339 | 2.6 | 7.0 | 0.00 | 0.00 | 0.00 | 36 | 1019.0 |
| 20260905095450 | 87 | 241 | 3.5 | 7.0 | 0.00 | 0.00 | 0.00 | 36 | 1019.1 |
| 20260905094949 | 87 | 321 | 2.6 | 5.2 | 0.00 | 0.00 | 0.00 | 39 | 1019.0 |
| 20260905094549 | 87 | 308 | 1.7 | 7.0 | 0.00 | 0.00 | 0.00 | 39 | 1018.8 |
| 20260905094457 | 87 | 274 | 2.6 | 7.0 | 0.00 | 0.00 | 0.00 | 40 | 1019.2 |
| 20260905093949 | 87 | 283 | 3.5 | 7.8 | 0.00 | 0.00 | 0.00 | 41 | 1019.2 |
| 20260905093449 | 86 | 291 | 3.5 | 7.8 | 0.00 | 0.00 | 0.00 | 41 | 1019.3 |
| 20260905093049 | 87 | 301 | 2.6 | 7.8 | 0.00 | 0.00 | 0.00 | 40 | 1018.9 |
| 20260905093009 | 87 | 9 | 2.6 | 7.8 | 0.00 | 0.00 | 0.00 | 40 | 1019.3 |
| 20260905092459 | 87 | 250 | 4.3 | 7.8 | 0.00 | 0.00 | 0.00 | 41 | 1019.4 |
| 20260905091950 | 87 | 33 | 2.6 | 5.2 | 0.00 | 0.00 | 0.00 | 42 | 1019.4 |
| 20260905091616 | 86 | 300 | 1.7 | 7.0 | 0.00 | 0.00 | 0.00 | 43 | 1019.0 |
| 20260905091459 | 86 | 307 | 2.6 | 7.0 | 0.00 | 0.00 | 0.00 | 42 | 1019.5 |
| 20260905090948 | 86 | 311 | 4.3 | 6.1 | 0.00 | 0.00 | 0.00 | 42 | 1019.5 |
| 20260905090450 | 86 | 315 | 2.6 | 7.0 | 0.00 | 0.00 | 0.00 | 42 | 1019.5 |
| 20260905090104 | 86 | 347 | 2.6 | 7.0 | 0.00 | 0.00 | 0.00 | 42 | 1019.0 |
| 20260905085958 | 86 | 288 | 3.5 | 7.0 | 0.00 | 0.00 | 0.00 | 42 | 1019.4 |
| 20260905085448 | 85 | 297 | 2.6 | 6.1 | 0.00 | 0.00 | 0.00 | 43 | 1019.5 |
| 20260905084950 | 86 | 290 | 2.6 | 6.1 | 0.00 | 0.00 | 0.00 | 44 | 1019.5 |
| 20260905084559 | 85 | 297 | 1.7 | 6.1 | 0.00 | 0.00 | 0.00 | 44 | 1019.1 |
| 20260905084458 | 85 | 278 | 1.7 | 6.1 | 0.00 | 0.00 | 0.00 | 44 | 1019.5 |
| 20260905083948 | 85 | 306 | 3.5 | 7.0 | 0.00 | 0.00 | 0.00 | 45 | 1019.5 |
| 20260905083450 | 85 | 353 | 2.6 | 7.0 | 0.00 | 0.00 | 0.00 | 45 | 1019.6 |
| 20260905083048 | 86 | 293 | 1.7 | 5.2 | 0.00 | 0.00 | 0.00 | 44 | 1019.1 |
| 20260905083010 | 86 | 288 | 2.6 | 5.2 | 0.00 | 0.00 | 0.00 | 44 | 1019.5 |
| 20260905082449 | 85 | 6 | 0.9 | 5.2 | 0.00 | 0.00 | 0.00 | 45 | 1019.6 |
| 20260905082000 | 85 | 278 | 3.5 | 5.2 | 0.00 | 0.00 | 0.00 | 45 | 1019.6 |
| 20260905081550 | 85 | 276 | 1.7 | 5.2 | 0.00 | 0.00 | 0.00 | 45 | 1019.2 |
| 20260905081459 | 85 | 307 | 1.7 | 5.2 | 0.00 | 0.00 | 0.00 | 45 | 1019.7 |
| 20260905080950 | 85 | 249 | 1.7 | 4.3 | 0.00 | 0.00 | 0.00 | 47 | 1019.6 |
| 20260905080449 | 84 | 290 | 2.6 | 5.2 | 0.00 | 0.00 | 0.00 | 46 | 1019.7 |
| 20260905080054 | 84 | 48 | 1.7 | 5.2 | 0.00 | 0.00 | 0.00 | 46 | 1019.2 |
| 20260905080009 | 84 | 20 | 3.5 | 6.1 | 0.00 | 0.00 | 0.00 | 46 | 1019.7 |
| 20260905075449 | 84 | 322 | 1.7 | 6.1 | 0.00 | 0.00 | 0.00 | 48 | 1019.7 |
| 20260905074949 | 84 | 276 | 2.6 | 5.2 | 0.00 | 0.00 | 0.00 | 45 | 1019.7 |
| 20260905074549 | 83 | 308 | 2.6 | 6.1 | 0.00 | 0.00 | 0.00 | 45 | 1019.2 |
| 20260905074458 | 83 | 316 | 3.5 | 6.1 | 0.00 | 0.00 | 0.00 | 47 | 1019.6 |
| 20260905073949 | 83 | 34 | 3.5 | 6.1 | 0.00 | 0.00 | 0.00 | 46 | 1019.6 |
| 20260905073449 | 83 | 322 | 2.6 | 6.1 | 0.00 | 0.00 | 0.00 | 46 | 1019.6 |
| 20260905073055 | 83 | 36 | 1.7 | 6.1 | 0.00 | 0.00 | 0.00 | 46 | 1019.1 |
| 20260905073009 | 83 | 325 | 2.6 | 6.1 | 0.00 | 0.00 | 0.00 | 46 | 1019.6 |
| 20260905072449 | 83 | 289 | 2.6 | 6.1 | 0.00 | 0.00 | 0.00 | 45 | 1019.5 |
| 20260905072000 | 83 | 345 | 1.7 | 6.1 | 0.00 | 0.00 | 0.00 | 45 | 1019.4 |
| 20260905071550 | 83 | 254 | 0.9 | 3.5 | 0.00 | 0.00 | 0.00 | 46 | 1019.2 |
| 20260905071458 | 83 | 18 | 0.9 | 3.5 | 0.00 | 0.00 | 0.00 | 46 | 1019.5 |
| 20260905070951 | 82 | 321 | 0.9 | 3.5 | 0.00 | 0.00 | 0.00 | 47 | 1019.5 |
| 20260905070449 | 82 | 288 | 2.6 | 3.5 | 0.00 | 0.00 | 0.00 | 46 | 1019.5 |
| 20260905070052 | 82 | 325 | 0.9 | 4.3 | 0.00 | 0.00 | 0.00 | 48 | 1019.1 |
| 20260905065958 | 82 | 354 | 1.7 | 4.3 | 0.00 | 0.00 | 0.00 | 47 | 1019.5 |
| 20260905065449 | 82 | 317 | 2.6 | 4.3 | 0.00 | 0.00 | 0.00 | 47 | 1019.7 |